Flag Weather past 2 weeks in Voerde (Niederrhein), North Rhine-Westphalia, Germany

Now
50 °F

Overcast.


Feels Like: 47 °F
Forecast: 42 / 51 °F
Wind: 6 mph from South

Location: Duesseldorf

Current Time: Nov 23, 2014 at 5:06:43 AM

Latest Report: Nov 23, 2014 at 3:00 AM


Visibility: 16 mi

Pressure: 30.10 "Hg

Humidity: 83%

Dew point: 45 °F

Location of Voerde (Niederrhein)Location

Historic Weather in Voerde (Niederrhein) — Graph

°F

Voerde (Niederrhein) temperature yesterday

Maximum temperature yesterday: 52 °F (at 3:00 PM)
Minimum temperature yesterday: 42 °F (at 2:00 AM)
Average temperature yesterday: 47 °F

Past Weeks' High & Low Weather Summary

 TemperatureHumidityPressure
High57 °F (Nov 8, 2:00 PM)99% (Nov 13, 3:00 AM)30.34 "Hg (Nov 13, 3:00 AM)
Low33 °F (Nov 21, 3:00 AM)61% (Nov 8, 2:00 PM)29.53 "Hg (Nov 16, 5:00 PM)
Average48 °F85%29.86 "Hg
* Reported Nov 8 3:00 AM — Nov 23 3:00 AM, Voerde (Niederrhein), Weather by CustomWeather, © 2014

Note: Actual official high and low records may vary slightly from our data, if they occured in-between our weather recording intervals... More about our weather records

Advertising

Voerde (Niederrhein) weather history for previous 24 hours

 ConditionsComfort  
Time TempWeatherWind HumidityBarometerVisibility
3:00 AM
Nov 23
50 °FOvercast.6 mph83%30.10 "Hg16 mi
2:00 AM49 °FOvercast.7 mph82%30.09 "Hg16 mi
1:00 AM50 °FOvercast.6 mph82%30.10 "Hg16 mi
12:00 AM50 °FOvercast.5 mph81%30.10 "Hg16 mi
11:00 PM
Nov 22
50 °FOvercast.6 mph81%30.09 "Hg16 mi
9:00 PM49 °FPassing clouds.7 mph83%30.08 "Hg16 mi
8:00 PM50 °FPassing clouds.6 mph82%30.07 "Hg16 mi
7:00 PM49 °FPassing clouds.6 mph83%30.07 "Hg16 mi
6:00 PM50 °FPassing clouds.7 mph82%30.06 "Hg16 mi
5:00 PM51 °FPassing clouds.5 mph81%30.07 "Hg9 mi
4:00 PM52 °FPassing clouds.5 mph79%30.06 "Hg11 mi
3:00 PM52 °FPassing clouds.6 mph78%30.07 "Hg14 mi
2:00 PM50 °FScattered clouds.5 mph79%30.08 "Hg14 mi
1:00 PM51 °FScattered clouds.6 mph76%30.07 "Hg12 mi
12:00 PM47 °FPartly sunny.6 mph79%30.09 "Hg16 mi
11:00 AM47 °FPartly sunny.6 mph77%30.09 "Hg16 mi
9:00 AM43 °FPartly sunny.7 mph83%30.09 "Hg14 mi
8:00 AM42 °FPassing clouds.5 mph83%30.09 "Hg12 mi
7:00 AM42 °FPassing clouds.7 mph81%30.08 "Hg19 mi
6:00 AM42 °FPassing clouds.6 mph81%30.08 "Hg16 mi
5:00 AM43 °FPassing clouds.7 mph81%30.09 "Hg12 mi
Weather by CustomWeather, © 2014

See weather overviewHow to use our weather pages